Location: Unspecified
(42.3650°N, 71.1030°W)
Time: 17:09:27
(UTC+00:00)

Tiros 1 - Pass Details

Date: 28 June 2024
Orbit: 624 x 656 km, 48.4° (Epoch: 13 July)

Event Time Altitude Azimuth Distance (km) Brightness Sun altitude
Rises 04:13:31 0° 267° (W) 2,898 10.6 -23.9°
Reaches altitude 10° 04:15:54 10° 274° (W) 1,993 9.8 -24.0°
Maximum altitude 04:20:18 45° 347° (NNW) 852 8.1 -24.1°
Drops below altitude 10° 04:24:44 10° 61° (ENE) 2,004 9.9 -24.2°
Sets 04:27:09 0° 68° (ENE) 2,917 10.7 -24.2°
